This is the latest recevied weather packets stored in our database for station/object KC7WRB. If no packets are shown the sender has not sent any weather packets the latest 10 day(s).
| Time | Temp. | Humidity | Pressure | Rain* | Wind** | Luminosity | Snow |
|---|---|---|---|---|---|---|---|
| 1778291729 | 25° C | 16% | 1017.2 hPa | 0 mm | - | 69 W/m² | - |
| 1778291425 | 25° C | 16% | 1017 hPa | 0 mm | - | 81 W/m² | - |
| 1778291122 | 25° C | 16% | 1017.2 hPa | 0 mm | - | 94 W/m² | - |
| 1778290818 | 25° C | 15% | 1017.2 hPa | 0 mm | - | 108 W/m² | - |
| 1778290516 | 25.56° C | 15% | 1017.4 hPa | 0 mm | - | 122 W/m² | - |
| 1778290211 | 25.56° C | 16% | 1017.2 hPa | 0 mm | - | 137 W/m² | - |
| 1778289908 | 25.56° C | 17% | 1017.2 hPa | 0 mm | - | 153 W/m² | - |
| 1778289605 | 25.56° C | 16% | 1017.2 hPa | 0 mm | - | 168 W/m² | - |
| 1778289302 | 25.56° C | 15% | 1017.2 hPa | 0 mm | - | 184 W/m² | - |
| 1778288999 | 26.11° C | 15% | 1017.4 hPa | 0 mm | - | 202 W/m² | - |
| 1778288697 | 26.11° C | 15% | 1017.1 hPa | 0 mm | - | 219 W/m² | - |
| 1778288394 | 26.11° C | 15% | 1017.4 hPa | 0 mm | - | 235 W/m² | - |
| 1778288092 | 26.11° C | 16% | 1017.5 hPa | 0 mm | - | 254 W/m² | - |
| 1778287791 | 26.11° C | 15% | 1017.2 hPa | 0 mm | - | 273 W/m² | - |
| 1778287489 | 26.67° C | 15% | 1017.4 hPa | 0 mm | - | 292 W/m² | - |
| 1778287186 | 26.67° C | 15% | 1017.4 hPa | 0 mm | - | 307 W/m² | - |
| 1778286884 | 26.67° C | 14% | 1017.4 hPa | 0 mm | - | 326 W/m² | - |
| 1778286581 | 26.67° C | 15% | 1017.4 hPa | 0 mm | - | 345 W/m² | - |
| 1778286279 | 26.67° C | 14% | 1017.4 hPa | 0 mm | - | 362 W/m² | - |
| 1778285976 | 26.67° C | 14% | 1017.5 hPa | 0 mm | - | 381 W/m² | - |
| 1778285672 | 26.67° C | 14% | 1017.4 hPa | 0 mm | - | 399 W/m² | - |
| 1778285369 | 26.67° C | 14% | 1017.2 hPa | 0 mm | - | 417 W/m² | - |
| 1778285067 | 26.67° C | 13% | 1017.2 hPa | 0 mm | - | 435 W/m² | - |
| 1778284762 | 26.67° C | 13% | 1017.4 hPa | 0 mm | - | 453 W/m² | - |
| 1778284461 | 27.22° C | 13% | 1017.4 hPa | 0 mm | - | 470 W/m² | - |
* Rain latest hour (hover to see other rain measurements)
** Current wind speed in m/s (hover to see current wind gust speed)